Location: Newark
(47.4333°N, 19.2500°E)
Time: 13:37:33
(UTC+00:00)

ISS - Pass Details

Date: 09 March 2021
Orbit: 418 x 422 km, 51.6° (Epoch: 17 April)

Event Time Altitude Azimuth Distance (km) Brightness Sun altitude
Exits shadow 02:24:37 21° 76° (ENE) 1,003 -1.2 -27.7°
Drops below altitude 10° 02:25:56 10° 86° (E) 1,495 -0.1 -27.5°
Sets 02:28:06 0° 93° (E) 2,357 1.0 -27.2°
